Weather in Chuy

Uruguay     33°41′53″S   53°26′55″W
temp.,
°C
wind,
m/s
gust,
m/s
humid.,
%
clouds,
%
prec.,
mm/h
press.,
hPa
HPBL,
m
12 may, wed
wed1200:00+12w367399 0.0 1020170
03:00+12w3769100 0.0 1020217
06:00+10w367447 0.0 1020130
09:00+11w48730 0.0 1022250
12:00+17wsw45520 0.0 10211372
15:00+17wsw45520 0.0 10201396
18:00+12wnw23690 0.0 102093
21:00+10wnw34780 0.0 102162
13 may, thu
thu1300:00+8wnw34810 0.0 102175
03:00+7wnw35830 0.0 102181
06:00+6wnw36830 0.0 1022104
09:00+10w36665 0.0 1023187
12:00+16wnw464699 0.0 1023589
15:00+18w464497 0.0 1021792
18:00+12w226690 0.0 102245
21:00+10wsw227547 0.0 102325
14 may, fri
fri1400:00+9w227492 0.0 102322
03:00+8w227617 0.0 102332
06:00+7w227995 0.0 102224
09:00+11w23645 0.0 1024117
12:00+18sw11425 0.0 1023531
15:00+19se11405 0.0 1021768
18:00+12ese22730 0.0 102149
21:00+10ese12802 0.0 102259
15 may, sat
sat1500:00+9nnw118820 0.0 102117
03:00+9wnw119041 0.0 102122
06:00+8wsw228850 0.0 102123
09:00+12w117169 0.0 102292
12:00+18nw00485 0.0 1022592
15:00+19e114521 0.0 1020846
18:00+12e227964 0.0 102036
21:00+10ne11855 0.0 102126
16 may, sun
sun1600:00+9nw118890 0.0 102120
03:00+10nw128798 0.0 102023
06:00+9w2284100 0.0 102027
09:00+11w23710 0.0 1021125
12:00+18w22470 0.0 1020677
15:00+19wsw23395 0.0 10181036
18:00+12sse2269100 0.0 101952
21:00+11ssw1278100 0.0 102052